Wind_Speed
20 19 19 19 19 19 19 18 18 17 16 15 15 15 15 15 15 15 15 15 15 16 16 17 18 19 19 20 20 20 20 20 21 22 22 22 22 22 23 23 23 23 23 24
21 20 19 19 19 20 20 19 19 19 19 17 17 17 17 17 16 16 16 16 16 16 17 18 19 19 21 22 22 23 22 23 24 25 24 25 24 24 24 25 25 26 26 26
22 21 22 21 20 21 21 20 19 20 19 18 18 19 19 19 19 19 18 18 17 18 19 20 20 21 23 24 25 25 25 25 26 26 26 26 26 26 26 26 27 27 28 28
24 23 24 22 21 22 22 22 21 21 21 21 21 21 21 21 21 20 20 20 20 20 21 21 22 23 24 25 25 26 26 27 27 27 27 27 27 27 27 28 28 29 29 29
26 26 25 24 24 23 23 24 23 22 22 22 22 22 22 22 22 22 22 22 23 23 24 24 25 26 26 27 27 27 27 27 28 28 28 28 28 29 29 29 29 30 31 31
27 27 27 25 25 25 25 25 23 23 23 23 22 22 22 23 24 24 24 25 25 26 26 26 27 28 28 28 28 27 28 28 29 29 29 29 29 29 29 29 30 30 31 31
27 27 27 26 25 25 25 24 23 24 24 24 24 24 24 25 25 26 26 26 26 26 27 28 28 29 29 29 29 28 28 29 29 29 30 30 30 30 30 30 29 30 30 31
27 27 26 25 25 26 25 24 24 25 25 26 26 26 26 27 27 27 27 27 27 28 28 29 30 30 30 30 29 29 30 30 30 30 31 31 30 30 31 31 30 30 30 31
27 27 26 25 25 26 26 26 26 27 27 28 28 27 28 28 28 28 28 28 29 29 29 30 31 31 31 30 29 29 30 31 31 31 31 31 31 32 31 31 31 31 31 31
28 28 28 27 26 26 28 28 29 29 29 29 28 28 29 29 29 29 30 30 30 31 31 31 31 31 31 30 30 30 31 31 32 32 31 31 32 32 31 32 31 31 31 31
28 27 28 29 29 29 29 30 30 30 30 29 30 30 30 30 30 30 31 31 32 32 31 31 30 30 30 31 31 32 32 32 32 31 31 31 30 31 32 32 32 31 31 31
28 29 29 28 29 29 30 31 30 30 30 30 30 31 31 32 32 32 32 32 33 32 32 31 31 31 31 31 32 33 33 33 32 31 31 31 30 30 30 30 31 31 31 31
29 29 29 29 29 30 30 30 31 31 31 31 31 32 32 33 33 33 32 33 33 34 33 33 32 32 32 32 32 33 33 32 32 31 30 30 30 30 30 29 30 31 31 31
29 29 30 30 30 30 30 30 31 31 31 31 31 32 32 33 33 33 33 32 33 33 33 32 31 32 32 32 31 31 31 31 32 31 31 30 30 30 30 29 30 30 30 30
29 30 30 30 31 31 31 31 31 31 31 32 31 32 32 33 33 33 32 31 32 32 32 31 31 31 31 31 30 30 30 31 32 31 31 31 30 30 30 30 29 29 29 29
30 30 30 30 30 31 31 31 30 31 32 32 32 32 33 33 33 33 32 32 32 32 32 31 31 30 31 31 30 30 31 31 32 31 31 31 30 30 31 30 30 30 30 30
29 29 29 29 29 30 30 30 31 31 31 32 32 33 33 33 33 32 32 32 31 31 31 31 31 31 32 31 31 31 31 31 31 31 30 30 30 31 31 31 31 31 30 30
28 28 28 29 28 29 29 29 29 30 31 32 32 31 32 31 31 31 31 31 31 31 31 31 32 32 32 32 32 31 31 31 30 30 30 30 31 31 31 31 31 31 31 31
28 28 28 28 28 28 28 28 28 29 29 30 30 30 29 29 30 30 29 29 29 29 30 31 32 32 32 31 32 32 31 32 32 31 30 31 31 32 31 31 31 31 32 31
26 26 26 26 26 26 26 26 27 27 27 28 28 28 29 29 29 28 28 28 29 29 29 30 31 31 31 31 31 31 31 31 31 30 30 31 31 31 32 31 31 30 30 30
24 24 24 24 24 24 25 25 26 27 27 27 27 28 28 28 28 28 27 27 28 28 29 29 30 30 31 31 30 30 30 30 31 31 31 32 32 32 31 31 30 30 30 29
23 23 23 23 23 24 24 25 25 26 26 26 26 27 27 27 26 27 27 27 27 28 28 28 29 29 30 30 30 30 30 30 30 30 30 30 30 30 29 29 28 28 27 27
21 21 21 22 22 23 24 24 25 25 25 26 26 25 25 25 26 26 26 27 28 28 29 29 29 29 30 30 30 29 29 29 29 29 29 29 29 29 28 27 26 26 25 25
20 21 21 22 22 23 23 24 24 25 25 25 26 26 25 25 25 26 26 27 27 28 29 29 29 29 30 29 28 28 28 28 28 27 27 27 27 27 27 26 26 25 25 25
21 22 22 23 23 23 24 24 24 24 24 24 24 24 25 25 25 26 26 26 27 27 27 27 28 28 28 27 26 26 26 26 26 26 26 26 26 26 26 26 25 25 25 25
20 21 21 22 23 23 24 24 24 24 24 24 24 24 24 25 25 26 26 27 27 27 26 26 26 27 26 26 25 25 25 25 25 25 25 25 25 25 24 24 24 24 23 23
21 21 22 22 22 22 23 23 23 23 24 24 24 24 25 25 26 26 26 26 26 25 25 25 24 24 24 23 23 24 24 24 24 24 24 24 24 23 23 23 23 22 22 23
Wind_Direction
253 253 252 254 255 260 264 266 269 272 272 271 271 274 280 283 285 284 285 283 284 287 290 293 297 300 301 299 297 298 300 299 298 299 300 299 300 297 296 295 295 295 295 296
251 253 252 254 255 257 262 265 268 271 273 273 272 275 280 282 281 282 285 285 285 288 289 292 296 298 299 298 299 298 297 296 295 296 297 298 298 295 294 293 293 293 293 293
254 255 253 253 256 259 262 264 267 270 272 274 277 277 279 280 280 282 285 289 290 291 291 291 294 297 299 299 299 298 297 296 295 295 296 297 296 294 293 292 292 291 291 291
255 255 254 255 256 259 261 265 268 270 271 273 276 279 278 277 279 282 285 288 291 291 290 290 292 295 298 298 297 297 297 297 297 296 295 296 296 295 294 292 290 290 290 290
254 256 257 256 258 261 263 265 267 270 271 273 277 279 278 278 280 283 285 288 290 291 291 292 293 294 296 297 296 295 296 297 297 297 296 296 295 295 295 293 290 290 290 289
254 256 258 258 260 262 263 265 267 268 269 273 277 279 279 279 280 283 285 286 288 289 290 292 293 294 294 295 295 294 295 295 295 296 295 296 297 296 295 294 292 291 292 291
253 256 259 259 260 263 264 267 268 269 270 272 275 277 279 278 279 282 284 286 288 289 292 292 293 294 295 294 294 294 294 294 295 295 294 294 294 294 294 295 295 294 293 292
252 256 259 260 260 262 265 267 268 270 272 274 275 276 278 278 278 280 282 285 287 290 291 292 293 294 295 297 294 293 293 294 295 295 293 293 293 294 294 295 295 294 294 294
252 256 259 261 262 262 263 266 269 271 273 275 275 276 276 275 277 278 280 283 286 288 290 292 293 295 296 299 298 297 295 294 294 294 294 293 293 294 294 295 295 294 294 294
254 254 256 259 262 264 265 267 270 273 275 275 276 277 278 279 280 279 278 281 284 286 288 290 292 294 296 297 299 298 298 297 296 295 293 294 295 294 295 295 295 295 295 295
254 256 258 258 260 263 266 268 270 271 274 276 278 278 278 279 280 279 280 280 281 283 286 288 291 292 294 296 298 297 296 297 296 296 296 296 295 295 294 294 294 295 295 295
256 258 260 261 261 262 265 268 270 272 274 276 278 279 279 279 279 279 279 280 280 282 285 289 291 293 294 295 295 296 295 295 296 296 295 295 294 296 296 295 293 294 295 295
259 260 262 264 265 267 268 270 271 273 274 275 276 278 280 281 281 280 280 282 281 283 286 288 290 291 293 294 295 296 296 296 297 297 296 296 297 297 297 296 295 296 295 294
259 261 263 264 265 267 269 270 272 273 274 275 276 278 279 281 282 283 283 283 282 283 284 286 288 291 293 294 295 296 297 297 297 296 296 295 296 296 297 297 296 295 294 295
259 261 263 264 265 266 267 268 270 272 274 275 276 277 279 280 282 283 283 282 281 282 284 286 288 290 292 295 296 295 296 298 298 297 297 296 296 297 297 298 298 297 295 294
259 260 262 263 265 266 267 269 271 273 276 276 276 278 279 281 283 283 283 283 283 282 284 286 288 290 292 294 295 295 296 297 298 297 296 295 295 296 297 297 297 298 298 295
260 260 261 263 264 265 267 270 272 274 276 277 277 279 280 282 283 283 283 283 283 284 284 286 289 290 292 293 293 294 296 297 297 295 294 294 296 296 297 296 296 297 298 297
261 262 263 264 266 268 270 271 273 275 278 279 281 281 281 281 283 283 283 283 283 284 285 286 287 288 289 290 292 294 296 297 297 297 294 295 296 296 296 296 296 296 296 296
263 265 265 266 268 271 272 275 277 279 280 281 282 283 284 284 283 283 284 285 285 285 285 285 286 287 288 290 292 294 295 296 297 298 297 296 296 295 295 296 295 295 295 294
263 265 266 267 269 271 273 275 278 280 280 281 282 284 285 285 285 285 285 285 285 285 286 286 286 286 288 290 292 293 294 295 295 296 297 297 297 297 297 296 295 294 294 293
265 266 268 269 271 273 274 276 278 280 282 283 284 284 285 285 285 286 287 287 286 286 287 287 287 287 289 290 292 293 294 294 294 294 295 297 297 297 297 296 296 295 294 293
266 268 270 271 272 273 275 277 279 281 281 283 285 285 285 285 286 287 287 288 288 289 288 288 288 288 289 291 293 293 294 295 295 295 296 297 298 299 298 297 297 296 296 294
267 269 270 272 272 273 276 278 279 281 283 284 285 286 287 287 287 287 287 288 289 290 289 289 290 290 291 292 293 293 294 295 296 296 297 298 299 300 300 298 298 297 297 295
268 270 272 274 274 275 278 280 282 284 285 286 285 286 287 287 287 288 289 290 290 290 290 290 290 292 293 293 293 294 295 296 297 298 299 299 300 300 300 298 298 297 297 296
270 272 273 274 275 277 280 282 284 285 286 287 287 287 287 288 287 288 289 290 291 292 292 292 293 294 294 292 292 293 295 297 298 298 299 300 300 300 300 300 299 298 299 298
273 275 276 276 278 279 280 281 282 284 285 286 287 288 288 289 289 290 290 290 291 292 291 292 294 295 294 294 293 294 296 297 297 298 299 300 301 301 301 302 301 300 300 300
277 278 278 279 279 280 280 280 281 282 283 285 286 288 289 290 291 291 291 292 292 291 291 292 294 295 295 295 295 295 297 297 298 299 300 301 302 302 302 303 303 303 302 301
Height
5876 5878 5879 5880 5882 5883 5883 5884 5885 5886 5886 5887 5886 5886 5886 5886 5885 5884 5884 5883 5882 5881 5880 5879 5877 5876 5874 5872 5871 5869 5868 5866 5865 5863 5861 5860 5858 5857 5855 5853 5851 5849 5847 5845
5871 5873 5874 5876 5878 5879 5879 5880 5881 5881 5882 5883 5882 5882 5882 5882 5881 5880 5879 5878 5878 5876 5875 5874 5872 5871 5869 5867 5866 5864 5863 5861 5859 5857 5856 5854 5853 5851 5849 5847 5845 5843 5841 5839
5867 5869 5870 5872 5874 5874 5875 5876 5877 5877 5879 5878 5878 5878 5878 5877 5876 5875 5874 5874 5873 5872 5870 5869 5867 5865 5864 5862 5860 5858 5857 5855 5853 5851 5850 5848 5846 5844 5842 5841 5839 5836 5834 5831
5862 5864 5865 5869 5869 5870 5871 5871 5872 5873 5873 5873 5873 5873 5872 5872 5871 5870 5870 5869 5868 5866 5865 5863 5861 5860 5858 5856 5854 5852 5850 5848 5846 5844 5843 5841 5839 5837 5835 5833 5830 5828 5826 5823
5856 5857 5859 5862 5864 5865 5865 5866 5867 5867 5868 5868 5867 5867 5867 5866 5865 5864 5864 5863 5862 5860 5859 5857 5855 5853 5851 5849 5847 5845 5843 5841 5839 5837 5835 5833 5831 5829 5826 5824 5822 5820 5817 5815
5850 5851 5853 5857 5858 5858 5860 5860 5861 5861 5861 5862 5861 5861 5861 5860 5859 5858 5857 5856 5855 5854 5852 5850 5848 5846 5844 5842 5840 5837 5835 5833 5831 5829 5827 5825 5823 5821 5818 5816 5814 5811 5809 5806
5844 5845 5847 5850 5851 5852 5854 5855 5855 5855 5855 5855 5855 5855 5854 5853 5852 5852 5851 5850 5849 5847 5845 5843 5841 5839 5837 5834 5832 5830 5828 5826 5824 5821 5819 5817 5815 5812 5810 5808 5806 5803 5801 5798
5837 5839 5843 5843 5844 5846 5847 5847 5848 5848 5848 5848 5848 5847 5847 5846 5845 5844 5843 5843 5841 5840 5838 5836 5834 5831 5829 5827 5825 5822 5820 5818 5816 5813 5811 5809 5806 5804 5802 5799 5797 5795 5792 5790
5832 5835 5836 5837 5838 5839 5840 5840 5841 5841 5841 5841 5840 5840 5839 5838 5837 5836 5836 5835 5834 5832 5831 5828 5826 5824 5822 5819 5817 5815 5812 5810 5807 5805 5802 5800 5797 5795 5792 5790 5788 5786 5784 5781
5825 5827 5829 5830 5831 5831 5832 5833 5833 5833 5833 5833 5832 5832 5831 5830 5829 5828 5827 5827 5825 5824 5823 5821 5819 5817 5814 5812 5809 5807 5804 5802 5799 5797 5794 5791 5788 5785 5784 5782 5780 5777 5775 5773
5818 5820 5821 5823 5823 5824 5825 5825 5825 5825 5825 5825 5824 5823 5822 5822 5821 5820 5819 5818 5817 5816 5814 5813 5811 5809 5806 5804 5801 5799 5796 5793 5791 5788 5786 5783 5780 5777 5775 5773 5771 5769 5766 5764
5811 5813 5814 5815 5816 5816 5817 5817 5817 5817 5817 5817 5816 5815 5814 5812 5811 5810 5809 5809 5808 5807 5806 5804 5802 5800 5798 5795 5793 5791 5788 5785 5782 5780 5777 5774 5772 5769 5765 5763 5762 5760 5758 5756
5803 5804 5805 5807 5807 5808 5808 5808 5809 5809 5809 5808 5808 5807 5805 5804 5802 5801 5800 5799 5798 5797 5796 5795 5793 5791 5789 5787 5784 5782 5779 5776 5773 5771 5768 5766 5763 5761 5759 5756 5753 5751 5749 5746
5795 5796 5797 5798 5799 5799 5799 5800 5800 5800 5800 5799 5799 5798 5797 5795 5793 5791 5791 5790 5789 5788 5787 5785 5784 5783 5781 5778 5776 5773 5770 5767 5764 5762 5760 5758 5755 5753 5750 5748 5745 5742 5740 5738
5787 5788 5789 5789 5790 5791 5791 5791 5791 5791 5791 5790 5790 5789 5788 5786 5785 5783 5782 5781 5780 5779 5777 5776 5775 5774 5772 5769 5767 5764 5761 5759 5756 5753 5750 5748 5746 5744 5742 5739 5736 5734 5732 5730
5779 5780 5780 5781 5782 5782 5783 5783 5783 5783 5782 5781 5780 5779 5778 5777 5776 5775 5773 5772 5771 5770 5769 5767 5766 5765 5763 5761 5758 5756 5753 5750 5747 5744 5742 5739 5737 5735 5733 5730 5728 5726 5723 5721
5771 5772 5772 5773 5774 5774 5774 5774 5774 5774 5773 5773 5772 5770 5769 5768 5767 5766 5764 5763 5762 5761 5760 5759 5757 5756 5754 5752 5749 5747 5744 5741 5738 5735 5733 5731 5728 5726 5723 5721 5719 5717 5715 5712
5762 5763 5764 5765 5766 5766 5766 5766 5766 5765 5765 5764 5763 5762 5760 5759 5757 5756 5755 5754 5753 5752 5751 5750 5748 5747 5745 5743 5740 5738 5735 5732 5729 5726 5724 5722 5719 5716 5714 5711 5709 5707 5705 5703
5754 5755 5756 5757 5757 5758 5758 5758 5758 5757 5756 5755 5754 5752 5751 5749 5748 5747 5746 5745 5744 5743 5742 5741 5739 5737 5736 5734 5731 5729 5726 5724 5721 5718 5715 5713 5710 5708 5705 5703 5700 5698 5696 5694
5746 5747 5748 5748 5749 5750 5750 5750 5749 5749 5748 5746 5745 5744 5743 5741 5740 5739 5738 5737 5735 5734 5733 5732 5730 5728 5726 5725 5723 5720 5718 5715 5712 5709 5707 5704 5701 5699 5696 5694 5692 5690 5688 5685
5739 5740 5741 5741 5742 5742 5742 5742 5741 5740 5739 5738 5737 5736 5735 5733 5732 5731 5730 5729 5727 5726 5724 5723 5721 5719 5717 5716 5713 5711 5709 5706 5703 5701 5698 5696 5693 5690 5687 5685 5683 5681 5679 5677
5733 5733 5734 5734 5734 5735 5735 5734 5733 5732 5731 5731 5730 5728 5727 5725 5724 5723 5722 5721 5719 5717 5716 5714 5712 5710 5708 5706 5704 5702 5700 5697 5695 5692 5689 5687 5684 5681 5679 5676 5674 5672 5670 5668
5727 5727 5728 5728 5728 5728 5727 5727 5726 5725 5724 5723 5722 5720 5719 5718 5717 5716 5715 5713 5711 5709 5707 5705 5704 5702 5700 5697 5695 5693 5690 5688 5686 5683 5681 5678 5676 5673 5670 5668 5666 5664 5662 5660
5721 5721 5721 5721 5721 5721 5720 5720 5719 5718 5716 5715 5714 5712 5711 5710 5709 5708 5706 5704 5703 5701 5699 5697 5695 5693 5690 5688 5686 5684 5682 5679 5677 5675 5673 5670 5668 5665 5663 5661 5659 5657 5655 5653
5715 5715 5714 5714 5714 5713 5713 5712 5711 5710 5709 5708 5706 5705 5704 5703 5702 5700 5698 5696 5694 5692 5690 5688 5686 5683 5681 5680 5678 5676 5674 5672 5670 5667 5665 5663 5661 5658 5656 5653 5651 5649 5647 5645
5708 5708 5707 5707 5707 5706 5706 5705 5704 5703 5702 5701 5699 5698 5697 5695 5694 5692 5690 5688 5686 5684 5682 5680 5678 5676 5673 5672 5670 5668 5666 5664 5662 5660 5658 5656 5654 5651 5649 5647 5645 5642 5640 5638
5701 5701 5700 5700 5700 5699 5698 5697 5696 5696 5695 5694 5692 5691 5689 5688 5686 5685 5683 5681 5679 5676 5674 5672 5670 5668 5666 5664 5663 5661 5660 5658 5656 5654 5651 5649 5647 5645 5643 5640 5638 5636 5634 5632